This is the latest recevied weather packets stored in our database for station/object KO4ZGL-13. If no packets are shown the sender has not sent any weather packets the latest 10 day(s).
| Time | Temp. | Humidity | Pressure | Rain* | Wind** | Luminosity | Snow |
|---|---|---|---|---|---|---|---|
| 1788035427 | 27.22° C | 97% | 1020.5 hPa | 0 mm | - | 81 W/m² | - |
| 1788035122 | 27.22° C | 97% | 1020.3 hPa | 0 mm | - | 85 W/m² | - |
| 1788034819 | 27.22° C | 97% | 1020.2 hPa | 0 mm | - | 130 W/m² | - |
| 1788034515 | 27.22° C | 97% | 1020.3 hPa | 0 mm | - | 149 W/m² | - |
| 1788034211 | 27.22° C | 97% | 1020.2 hPa | 1.27 mm | - | 143 W/m² | - |
| 1788033909 | 27.22° C | 96% | 1020.1 hPa | 1.27 mm | - | 131 W/m² | - |
| 1788033604 | 27.22° C | 96% | 1020.2 hPa | 0 mm | - | 119 W/m² | - |
| 1788033303 | 27.22° C | 96% | 1020.2 hPa | 0 mm | - | 100 W/m² | - |
| 1788032999 | 27.78° C | 95% | 1020.4 hPa | 0 mm | - | 101 W/m² | - |
| 1788032698 | 27.78° C | 95% | 1020.4 hPa | 0 mm | - | 95 W/m² | - |
| 1788032394 | 27.78° C | 95% | 1020.6 hPa | 0 mm | - | 92 W/m² | - |
| 1788032089 | 27.78° C | 95% | 1020.3 hPa | 0 mm | - | 92 W/m² | - |
| 1788031784 | 27.78° C | 94% | 1020.5 hPa | 0 mm | - | 90 W/m² | - |
| 1788031479 | 27.78° C | 94% | 1020.6 hPa | 0 mm | - | 84 W/m² | - |
| 1788031174 | 27.78° C | 94% | 1020.5 hPa | 0 mm | - | 79 W/m² | - |
| 1788030873 | 27.78° C | 94% | 1020.5 hPa | 0 mm | - | 69 W/m² | - |
| 1788030573 | 27.78° C | 93% | 1020.5 hPa | 0 mm | - | 59 W/m² | - |
| 1788030267 | 27.78° C | 92% | 1020.7 hPa | 0 mm | - | 58 W/m² | - |
| 1788029963 | 28.33° C | 91% | 1020.5 hPa | 0 mm | - | 79 W/m² | - |
| 1788029658 | 28.33° C | 89% | 1020.9 hPa | 0 mm | - | 97 W/m² | - |
| 1788029353 | 28.89° C | 88% | 1021 hPa | 0 mm | - | 101 W/m² | - |
| 1788029052 | 29.44° C | 86% | 1020.8 hPa | 0 mm | - | 126 W/m² | - |
| 1788028746 | 28.89° C | 83% | 1020.7 hPa | 0 mm | - | 162 W/m² | - |
| 1788028440 | 29.44° C | 84% | 1021 hPa | 0 mm | - | 203 W/m² | - |
| 1788028136 | 29.44° C | 84% | 1021 hPa | 0 mm | - | 218 W/m² | - |
* Rain latest hour (hover to see other rain measurements)
** Current wind speed in m/s (hover to see current wind gust speed)